Time,TemperatureF,DewpointF,PressureIn,WindDirection,WindDirectionDegrees,WindSpeedMPH,WindSpeedGustMPH,Humidity,HourlyPrecipIn,Conditions,Clouds,dailyrainin,SoftwareType,DateUTC
2013-01-23 00:30:00,26.4,4.8,30.28,NE,37,0.0,1.0,39,0.00,,---,0.00,VWS V12.07,2013-01-23 05:30:00,
2013-01-23 01:00:00,26.4,5.4,30.28,NE,36,0.0,2.0,40,0.00,,---,0.00,VWS V12.07,2013-01-23 06:00:00,
2013-01-23 01:30:00,26.4,5.9,30.28,NE,36,2.0,2.0,41,0.00,,---,0.00,VWS V12.07,2013-01-23 06:30:00,
2013-01-23 02:00:00,26.1,4.5,30.29,NNE,29,0.0,4.0,39,0.00,,---,0.00,VWS V12.07,2013-01-23 07:00:00,
2013-01-23 02:30:00,26.1,5.6,30.29,NNE,32,2.0,2.0,41,0.00,,---,0.00,VWS V12.07,2013-01-23 07:30:00,
2013-01-23 03:00:00,26.0,6.1,30.29,NNE,31,0.0,3.0,42,0.00,,---,0.00,VWS V12.07,2013-01-23 08:00:00,
2013-01-23 03:30:00,26.0,6.1,30.30,NNW,344,0.0,1.0,42,0.00,,---,0.00,VWS V12.07,2013-01-23 08:30:00,
2013-01-23 04:00:00,26.3,7.9,30.30,NNE,15,0.0,3.0,45,0.00,,---,0.00,VWS V12.07,2013-01-23 09:00:00,
2013-01-23 04:30:00,26.3,7.9,30.29,NNE,22,0.0,3.0,45,0.00,,---,0.00,VWS V12.07,2013-01-23 09:30:00,
2013-01-23 05:00:00,26.6,9.6,30.29,NNW,343,0.0,1.0,48,0.00,,---,0.00,VWS V12.07,2013-01-23 10:00:00,
2013-01-23 05:30:00,26.9,10.3,30.30,NNE,22,0.0,0.0,49,0.00,,---,0.00,VWS V12.07,2013-01-23 10:30:00,
2013-01-23 06:00:00,27.2,10.6,30.30,NE,55,0.0,2.0,49,0.00,,---,0.00,VWS V12.07,2013-01-23 11:00:00,
2013-01-23 06:30:00,27.3,11.1,30.32,NE,38,3.0,4.0,50,0.00,,---,0.00,VWS V12.07,2013-01-23 11:30:00,
2013-01-23 07:00:00,27.2,11.0,30.32,NNE,16,1.0,2.0,50,0.00,,---,0.00,VWS V12.07,2013-01-23 12:00:00,
2013-01-23 07:30:00,27.2,10.6,30.33,North,350,0.0,3.0,49,0.00,,---,0.00,VWS V12.07,2013-01-23 12:30:00,
2013-01-23 08:00:00,27.2,11.0,30.33,NNE,18,0.0,0.0,50,0.00,,---,0.00,VWS V12.07,2013-01-23 13:00:00,
2013-01-23 08:30:00,27.6,11.9,30.33,NNE,18,0.0,0.0,51,0.00,,---,0.00,VWS V12.07,2013-01-23 13:30:00,
2013-01-23 09:00:00,28.1,11.9,30.33,NNE,18,0.0,1.0,50,0.00,,---,0.00,VWS V12.07,2013-01-23 14:00:00,
2013-01-23 09:30:00,29.1,13.2,30.33,NNE,18,0.0,0.0,51,0.00,,---,0.00,VWS V12.07,2013-01-23 14:30:00,
2013-01-23 10:00:00,30.6,15.5,30.34,NNW,345,0.0,0.0,53,0.00,,---,0.00,VWS V12.07,2013-01-23 15:00:00,
2013-01-23 10:30:00,31.9,15.4,30.34,North,355,0.0,1.0,50,0.00,,---,0.00,VWS V12.07,2013-01-23 15:30:00,
2013-01-23 11:00:00,32.8,16.2,30.35,North,355,0.0,3.0,50,0.00,,---,0.00,VWS V12.07,2013-01-23 16:00:00,
2013-01-23 11:30:00,34.7,17.0,30.34,North,5,0.0,3.0,48,0.00,,---,0.00,VWS V12.07,2013-01-23 16:30:00,
2013-01-23 12:00:00,38.0,16.4,30.32,NW,323,0.0,3.0,41,0.00,,---,0.00,VWS V12.07,2013-01-23 17:00:00,
2013-01-23 12:30:00,41.2,18.7,30.28,South,169,2.0,4.0,40,0.00,,---,0.00,VWS V12.07,2013-01-23 17:30:00,
2013-01-23 13:00:00,43.3,21.2,30.24,North,355,0.0,3.0,41,0.00,,---,0.00,VWS V12.07,2013-01-23 18:00:00,
2013-01-23 13:30:00,43.5,22.5,30.22,SE,128,0.0,3.0,43,0.00,,---,0.00,VWS V12.07,2013-01-23 18:30:00,
2013-01-23 14:00:00,45.1,26.6,30.21,West,279,0.0,3.0,48,0.00,,---,0.00,VWS V12.07,2013-01-23 19:00:00,
2013-01-23 14:30:00,47.7,26.3,30.19,NE,42,2.0,3.0,43,0.00,,---,0.00,VWS V12.07,2013-01-23 19:30:00,
2013-01-23 15:00:00,45.8,22.9,30.19,NE,39,0.0,2.0,40,0.00,,---,0.00,VWS V12.07,2013-01-23 20:00:00,
2013-01-23 15:30:00,45.1,25.0,30.18,ENE,70,0.0,8.0,45,0.00,,---,0.00,VWS V12.07,2013-01-23 20:30:00,
2013-01-23 16:00:00,44.5,24.0,30.17,NE,49,5.0,7.0,44,0.00,,---,0.00,VWS V12.07,2013-01-23 21:00:00,
2013-01-23 16:30:00,43.9,24.0,30.17,NNE,26,0.0,4.0,45,0.00,,---,0.00,VWS V12.07,2013-01-23 21:30:00,
2013-01-23 17:00:00,42.3,25.9,30.17,SW,220,0.0,0.0,52,0.00,,---,0.00,VWS V12.07,2013-01-23 22:00:00,
2013-01-23 17:30:00,41.5,26.5,30.17,ESE,109,0.0,1.0,55,0.00,,---,0.00,VWS V12.07,2013-01-23 22:30:00,
2013-01-23 18:00:00,38.0,26.5,30.18,SE,144,1.0,3.0,63,0.00,,---,0.00,VWS V12.07,2013-01-23 23:00:00,
2013-01-23 18:30:00,37.3,25.9,30.18,SE,144,0.0,2.0,63,0.00,,---,0.00,VWS V12.07,2013-01-23 23:30:00,
2013-01-23 19:00:00,36.0,26.1,30.18,SE,144,0.0,2.0,67,0.00,,---,0.00,VWS V12.07,2013-01-24 00:00:00,
2013-01-23 19:30:00,34.4,25.6,30.18,SE,144,0.0,0.0,70,0.00,,---,0.00,VWS V12.07,2013-01-24 00:30:00,
2013-01-23 20:00:00,32.5,26.1,30.18,SE,144,0.0,0.0,77,0.00,,---,0.00,VWS V12.07,2013-01-24 01:00:00,
2013-01-23 20:30:00,30.6,24.3,30.19,SE,144,0.0,0.0,77,0.00,,---,0.00,VWS V12.07,2013-01-24 01:30:00,
2013-01-23 21:00:00,29.1,23.4,30.19,SE,144,0.0,0.0,79,0.00,,---,0.00,VWS V12.07,2013-01-24 02:00:00,
2013-01-23 21:30:00,28.7,23.9,30.17,SE,144,0.0,0.0,82,0.00,,---,0.00,VWS V12.07,2013-01-24 02:30:00,
2013-01-23 22:00:00,27.9,23.1,30.18,SE,144,0.0,0.0,82,0.00,,---,0.00,VWS V12.07,2013-01-24 03:00:00,
2013-01-23 22:30:00,27.5,23.0,30.17,SE,144,0.0,0.0,83,0.00,,---,0.00,VWS V12.07,2013-01-24 03:30:00,
2013-01-23 23:00:00,27.5,23.6,30.17,SE,144,0.0,0.0,85,0.00,,---,0.00,VWS V12.07,2013-01-24 04:00:00,
2013-01-23 23:30:00,27.3,23.7,30.14,SE,144,0.0,0.0,86,0.00,,---,0.00,VWS V12.07,2013-01-24 04:30:00,